Weather Roundup
Issued by NWS Chicago, IL

Home | Current Version | Previous Version | Graphics & Text | Print | Product List | Glossary On
Versions: 1 2 3 4 5 6 7 8 9 10 11 12 13 14 15 16 17 18 19 20 21 22 23 24 25 26 27 28 29 30 31 32 33 34 35 36 37 38 39 40 41 42 43 44 45 46 47 48 49 50
000
NZUS59 KLOT 281506
HRRLOT

CHICAGO AREA WEATHER ROUNDUP
NATIONAL WEATHER SERVICE CHICAGO/ROMEOVILLE IL
900 AM CST SAT FEB 28 2015

NOTE: "FAIR" INDICATES FEW OR NO CLOUDS BELOW 12,000 FEET WITH NO
SIGNIFICANT WEATHER AND/OR OBSTRUCTIONS TO VISIBILITY.

* THESE STATIONS ARE NOT UNDER NWS QUALITY CONTROL. THEY ALSO MAY NOT
  REPORT WEATHER SUCH AS PRECIPITATION OR FOG.

ILZ005-006-012>014-019>023-281600-
NORTHEAST ILLINOIS

CITY           SKY/WX    TMP DP  RH WIND       PRES   REMARKS
OHARE          MOSUNNY    4  -2  76 S5        30.71S WCI  -5
MIDWAY         MOSUNNY   10  -1  61 S7        30.73S WCI  -1
AURORA         SUNNY      0  -5  79 CALM      30.71S HAZE
LANSING*       SUNNY      3  -1  85 CALM      30.74S
JOLIET*        MOSUNNY    4   1  86 E3        30.73S
WAUKEGAN       SUNNY      5  -4  66 SW6       30.71R WCI  -6
DUPAGE AIRPORT SUNNY      2  -2  83 CALM      30.70R
WHEELING       SUNNY      6  -2  69 CALM      30.74R
KANKAKEE*      MOSUNNY    8   0  70 E7        30.73S WCI  -4
MORRIS*        FOG       -3  -6  86 CALM      30.72S VSB 1/4
LEWIS AIRPORT* SUNNY      3  -1  83 SE5       30.72S WCI  -6
NORTHERLY IS     N/A     11  -2  56 S5          N/A  WCI   3
$$

WIZ051-052-058>065-066-070>072-281600-
SOUTHEAST WISCONSIN

CITY           SKY/WX    TMP DP  RH WIND       PRES   REMARKS
MILWAUKEE      MOSUNNY    5  -5  63 S5        30.70R WCI  -4
KENOSHA*       SUNNY      1  -5  75 W3        30.71R
RACINE*        SUNNY      3  -5  69 SW6       30.73R WCI  -8
BURLINGTON     SUNNY      0  -6  77 CALM      30.69S
WAUKESHA       SUNNY      3  -6  66 SW6       30.68R WCI  -8
WEST BEND      SUNNY      9  -6  52 W5        30.66R WCI   0
$$

INZ001>003-010>013-019-020-281600-
NORTHWEST INDIANA

CITY           SKY/WX    TMP DP  RH WIND       PRES   REMARKS
GARY*          MOSUNNY    9   1  72 CALM      30.74S
MICHIGAN CITY* NOT AVBL
RENSSELAER*    NOT AVBL
VALPARAISO     SUNNY     -2  -7  79 E5        30.73S WCI -12
$$

LMZ740>746-281600-
SOUTHERN LAKE MICHIGAN

STATION/POSITION TIME  SKY/WX   TEMP WIND        PRES    VSBY
                                AIR  DIR/SP/G
                 (UTC)          (F)  (DEG/KT/KT) (MB)    (MI)
HARRISON CRIB    1500            10  180/  9/ 13   N/A
BURNHAM HARBOR   1500            12  160/  3/  5   N/A
CALUMET HARBOR   1500             9  190/  4/  5 1039.3R
BURNS HARBOR     NOT AVBL
MICHIGAN CITY    1500             8  130/  6/  8   N/A
$$

ABBREVIATIONS USED IN REMARKS
   TC - TEMPERATURE IN CELSIUS
  WCI - WIND CHILL INDEX
   HX - HEAT INDEX
  VSB - VISIBILITY
$$


USA.gov is the U.S. government's official web portal to all federal, state and local government web resources and services.